Regional Weather Roundup
Issued by NWS

Home | Current Version | Previous Version | Text Only | Print | Product List | Glossary On
Versions: 1 2 3 4 5 6 7 8 9 10 11 12 13 14 15 16 17 18 19 20 21 22 23 24 25 26 27 28 29 30 31 32 33 34 35 36 37 38 39 40 41 42 43 44 45 46 47 48 49 50
000
ASUS44 KFWD 292303
RWRTX
NORTH TEXAS HOURLY WEATHER ROUNDUP
NATIONAL WEATHER SERVICE FORT WORTH TX
500 PM CST THU JAN 29 2015

NOTE: "FAIR" INDICATES FEW OR NO CLOUDS BELOW 12,000 FEET WITH NO
SIGNIFICANT WEATHER AND/OR OBSTRUCTIONS TO VISIBILITY.

TXZ118-119-300000-
DALLAS/FORT WORTH METROPLEX

CITY           SKY/WX    TMP DP  RH WIND       PRES   REMARKS
DFW AIRPORT    PTSUNNY   62  34  35 N17G25    30.32R
DALLAS LOVE    PTSUNNY   64  36  35 N13G22    30.31R
FTW MEACHAM    CLOUDY    62  35  36 N17G28    30.33R
DAL-EXECUTIVE  PTSUNNY   65  34  31 N18       30.30R
FTW-ALLIANCE   CLOUDY    60  33  36 N17G23    30.34R
FTW-SPINKS     SUNNY     61  36  39 N14G28    30.34R
ARLINGTON      CLOUDY    64  34  32 N15       30.32R
MESQUITE       CLEAR     63  36  36 N12G17    30.30R
LANCASTER      PTSUNNY   63  36  37 N16       30.31R
$$

TXZ091>094-102>105-117-120-121-131>134-300000-
NORTH CENTRAL TEXAS

CITY           SKY/WX    TMP DP  RH WIND       PRES   REMARKS
SHRMAN/DENISON PTCLDY    56  36  45 N10G16    30.37R
BRIDGEPORT     CLOUDY    57  35  44 N15       30.39R
DECATUR        CLOUDY    56  29  35 N14G22    30.37R
DENTON         PTSUNNY   58  33  39 N14       30.34R
MCKINNEY       PTCLDY    59  34  39 N18G25    30.31R
GREENVILLE     PTCLDY    59  32  36 N13G24    30.32R
ROCKWALL       PTCLDY    62  36  37 N13G20    30.29R
TERRELL        MOCLDY    64  38  38 N17G23    30.30R
WAXAHACHIE     PTSUNNY   63  39  41 N14       30.32R
CLEBURNE       CLOUDY    63  36  36 N20       30.33R
GRANBURY       PTSUNNY   62  35  36 N9        30.35R
$$

TXZ083>090-098>101-113>116-127>130-139>142-154-155-300000-
WESTERN NORTH TEXAS

CITY           SKY/WX    TMP DP  RH WIND       PRES   REMARKS
WICHITA FALLS  CLOUDY    52  31  44 N21       30.41R
WF-KICKAPOO    CLOUDY    46  23  39 N23G31    30.42R WCI  38
VERNON         CLOUDY    54  21  27 N15G23    30.45R
ABILENE        CLOUDY    58  34  40 N17G25    30.38R
ABILENE-DYESS  CLOUDY    57  34  41 NE15G26   30.38R
BRECKENRIDGE   PTSUNNY   58  31  35 N20       30.38R
MINERAL WELLS  PTSUNNY   58  32  37 N17       30.35R
STEPHENVILLE   CLOUDY    61  34  36 N10       30.36R
COMANCHE       CLOUDY    61  38  42 N18G26    30.34R
BROWNWOOD      PTSUNNY   64  36  34 N15       30.33R
COLEMAN        PTSUNNY   62  38  41 N21       30.34R
BRADY          CLOUDY    63  37  39 NE13      30.31R
$$

TXZ143>147-156>162-174-175-300000-
CENTRAL TEXAS

CITY           SKY/WX    TMP DP  RH WIND       PRES   REMARKS
WACO           CLOUDY    67  39  35 N14       30.27R
WACO-TSTC      SUNNY     68  36  30 N14G22    30.28R
WACO-MCGREGOR  CLOUDY    68  39  34 N13       30.29R
CORSICANA      PTSUNNY   67  38  34 N14       30.28R
MEXIA          CLOUDY    67  40  36 N8G16     30.26R
HEARNE         PTSUNNY   72  53  51 NW14      30.23R
CAMERON        PTSUNNY   68  47  47 N9G18     30.24R
TEMPLE         PTSUNNY   68  39  34 N16G23    30.26R
KILLEEN        PTSUNNY   68  38  33 NE14      30.27R
KILLEEN-SKYLRK PTSUNNY   68  37  32 N17G25    30.26R
FORT HOOD      PTSUNNY   69  37  31 N15       30.26R
GATESVILLE     PTSUNNY   66  37  34 N10G18    30.30R
HAMILTON       CLOUDY    66  35  31 N18G26    30.30S
LAMPASAS       PTSUNNY   67  40  37 N14G21    30.27S
$$

TXZ095>097-106>112-122>126-135>138-148>153-164>167-300000-
EAST TEXAS

CITY           SKY/WX    TMP DP  RH WIND       PRES   REMARKS
PARIS          MOCLDY    55  34  44 N21G28    30.33R
SULPHUR SPRNGS PTCLDY    59  36  41 N21       30.33R
MOUNT PLEASANT CLEAR     65  37  35 NW17      30.28S
GILMER         PTCLDY    64  37  37 NW9       30.26R
MINEOLA        PTCLDY    64  34  32 NW9       30.28S
TYLER          PTCLDY    66  38  35 N15G21    30.26R
LONGVIEW       MOCLDY    68  38  33 N10       30.23R
MARSHALL       MOCLDY    73  39  29 N13       30.24R
PALESTINE      MOCLDY    70  41  35 N7        30.24R
JACKSONVILLE   CLEAR     70  38  31 MISG      30.25R
HENDERSON      PTCLDY    71  38  30 N8        30.24R
NACOGDOCHES    CLEAR     70  52  52 NW5       30.21S
LUFKIN         PTCLDY    72  53  51 W3        30.20S
$$

SUPPLEMENTAL OBSERVATIONS (CENTRAL)

CITY           SKY/WX    TMP DP  RH WIND       PRES   REMARKS
$$

SUPPLEMENTAL OBSERVATIONS (WEST)

CITY           SKY/WX    TMP DP  RH WIND       PRES   REMARKS
$$

SUPPLEMENTAL OBSERVATIONS (EAST)

CITY           SKY/WX    TMP DP  RH WIND       PRES   REMARKS
$$

SUPPLEMENTAL OBSERVATIONS ARE A COLLECTION OF AUTOMATED INSTRUMENTS
THAT ARE MAINTAINED BY A VARIETY OF FEDERAL AND STATE AGENCIES.
CERTAIN ELEMENTS...SUCH AS HUMIDITY VALUES AND SUSTAINED WIND
SPEEDS...MAY BE APPROXIMATED.



USA.gov is the U.S. government's official web portal to all federal, state and local government web resources and services.